NOAA 16 DEB, 41216

Orbit data source: Space-Track

NOAA 16 DEB, 41216 is space debris in SSO originally from a launch on Thu, 21 Sep 2000 UTC launched from the Air Force Western Test Range (AFWTR). Debris objects in space refer to the collection of defunct objects orbiting the Earth. Examples of debris include non-operational satellites, rocket bodies, and fragments generated from explosions, collisions, or faulty payload assembly.

Loading next visibility...
Identifier
41216, 2000-055DV
Orbit
SSO
Country
Flag of USUS
Related business
Manufacturer
Unknown
Mission
Spacecraft
Bus & Motor
Unknown
Mass
Unknown
Launch date (UTC)
2000-09-21 (26 years ago)
Launch vehicle
Unknown
Launch site
Air Force Western Test Range (AFWTR)
Object type
Payload
Rocket body
Debris
Shape & HBR
Unknown shape, 0.1 m
Radar Cross Section
Medium (>0.1 m² and <1 m²)

Expand to show TLE details & history
Last TLE update: 12 hours ago

TLE from 12 hours ago
0 NOAA 16 DEB
1 41216U 00055DV  26165.08669705  .00002155  00000-0  14267-2 0  9990
2 41216  98.9327 116.8185 0095003 196.4923 163.3145 14.00392937533951
Epoch: 2026-06-14T02:04Z
TLE epoch observation values (Epoch: 2026-06-14T02:04:50.625Z)
Latitude
-0.00002°
Longitude
-176.78491°
Altitude
961.546 km
Speed
7.337 km/s
True Right ascension
07h 47m 16s
True Declination
0° 00' 00"
Sunlit
Object was in daylight at epoch
Visualization orbit readout
Latitude
Unknown
Longitude
Unknown
Altitude
Unknown
Speed
Unknown
Apparent Right ascension
Unknown
Apparent Declination
Unknown
Sunlit
N/A
Visualization observer readout
Local Sidereal Time
00:36:59
Azimuth
Unknown
Elevation
Unknown
Doppler factor
Unknown
Orbital elements
Apogee altitude
958.676 km
Perigee altitude
820.584 km
Semi-major axis
7,267.767 km
Eccentricity
0.0095
Inclination
98.9327°
RAAN
116.8185°
Arg. of periapsis
196.4923°
True anomaly
163.62355°
Mean anomaly
163.3145°
Eccentric anomaly
163.46938°
Mean motion
3.50301 °/min
Orbital period
102.77 mins
BSTAR
0.0014267
Loading maneuver chart data...
Computing Atmospheric mass density...
Loading historical data...
Loading historical data...
Loading historical data...
Loading historical data...
Loading historical data...
Loading historical data...
Loading historical data...

Documentation

Showing up to 5 results
|